CW2377 Weather Reports


Display with metric or nautical units.
time (UTC)temp
F
wind
direction
speed
MPH
gust
MPH
rain 1hr
in
rain 24hr
in
rain mn
in
humidity
%
barometer
mb
20260505173203 32 0 0.0 0.0 0.00 0.00 0.00 100
20260505172703 32 0 0.0 0.0 0.00 0.00 0.00 100
20260505172204 32 0 0.0 0.0 0.00 0.00 0.00 100
20260505171203 32 0 0.0 0.0 0.00 0.00 0.00 100
20260505170704 32 0 0.0 0.0 0.00 0.00 0.00 100
20260505170204 32 0 0.0 0.0 0.00 0.00 0.00 100
20260505165703 32 0 0.0 0.0 0.00 0.00 0.00 100
20260505164703 32 0 0.0 0.0 0.00 0.00 0.00 100
20260505164204 32 0 0.0 0.0 0.00 0.00 0.00 100
20260505163704 32 0 0.0 0.0 0.00 0.00 0.00 100
20260505162704 32 0 0.0 0.0 0.00 0.00 0.00 100
20260505162203 32 0 0.0 0.0 0.00 0.00 0.00 100
20260505161704 32 0 0.0 0.0 0.00 0.00 0.00 100
20260505160704 32 0 0.0 0.0 0.00 0.00 0.00 100
20260505160204 32 0 0.0 0.0 0.00 0.00 0.00 100
20260505153203 32 0 0.0 0.0 0.00 0.00 0.00 100
20260505152704 32 0 0.0 0.0 0.00 0.00 0.00 100
20260505151704 32 0 0.0 0.0 0.00 0.00 0.00 100
20260505150704 32 0 0.0 0.0 0.00 0.00 0.00 100
20260505150204 32 0 0.0 0.0 0.00 0.00 0.00 100
20260505140203 32 0 0.0 0.0 0.00 0.00 0.00 100
20260505024204 64 136 0.0 0.0 0.00 0.03 0.03 64 999.6
20260505023704 64 136 0.0 0.0 0.00 0.03 0.03 63 999.6
20260505023203 64 136 0.0 0.0 0.00 0.03 0.03 64 999.5
20260505022703 64 136 0.0 0.0 0.00 0.03 0.03 64 999.3
20260505022204 65 136 0.0 0.0 0.00 0.03 0.03 64 999.1
20260505021704 65 136 0.0 0.0 0.00 0.03 0.03 65 998.9
20260505021204 65 136 0.0 0.0 0.00 0.03 0.03 64 998.7
20260505020704 65 136 0.0 0.0 0.00 0.03 0.03 65 998.7
20260505020204 65 136 0.0 0.0 0.00 0.03 0.03 65 998.6
20260505015703 65 136 0.0 0.0 0.00 0.03 0.03 66 998.4
20260505015205 66 136 0.0 0.0 0.00 0.03 0.03 66 998.2
20260505014704 66 136 0.0 0.0 0.00 0.03 0.03 66 998.0
20260505013704 66 136 0.0 0.0 0.00 0.03 0.03 67 997.8
20260505013204 66 136 0.0 0.0 0.00 0.03 0.03 67 997.7
20260505012704 66 136 0.0 0.0 0.00 0.03 0.03 67 997.7
20260505012204 66 136 0.0 0.0 0.00 0.03 0.03 66 997.6
20260505011703 66 136 0.0 0.0 0.00 0.03 0.03 65 997.6
20260505011204 67 136 0.0 0.0 0.00 0.03 0.03 63 997.8
20260505010703 67 136 0.0 0.0 0.00 0.03 0.03 62 997.7
20260505005704 67 136 0.0 0.0 0.00 0.03 0.03 59 997.8
20260505005204 67 136 0.0 0.0 0.00 0.03 0.03 59 997.5
20260505004204 67 136 0.0 0.0 0.00 0.03 0.03 59 996.9
20260505003704 68 136 0.0 0.0 0.00 0.03 0.03 58 996.7
20260505003203 68 136 0.0 0.0 0.00 0.03 0.03 56 996.5
20260505002703 69 136 0.0 0.0 0.00 0.03 0.03 54 996.5
20260505002203 70 136 0.0 0.0 0.00 0.03 0.03 50 996.4
20260505001704 71 136 0.0 0.0 0.00 0.03 0.03 46 996.4
20260505001204 71 136 0.0 0.0 0.00 0.03 0.03 46 996.4
20260505000204 71 136 0.0 0.0 0.00 0.03 0.03 45 996.2
20260504235703 71 136 0.0 0.0 0.00 0.03 0.03 44 996.3
20260504235203 71 136 0.0 0.0 0.00 0.03 0.03 46 996.3
20260504234704 71 136 0.0 0.0 0.00 0.03 0.03 48 996.3
20260504234205 71 136 0.0 0.0 0.00 0.03 0.03 45 996.1
20260504233205 71 136 0.0 0.0 0.03 0.03 0.03 49 996.3
20260504232703 71 136 0.0 0.0 0.03 0.03 0.03 46 996.3
20260504231703 69 136 0.0 1.0 0.03 0.03 0.03 51 996.2
20260504231203 69 136 0.0 6.0 0.03 0.03 0.03 52 996.5
20260504225703 67 136 0.0 0.0 0.03 0.03 0.03 61 997.4
20260504224203 71 216 0.0 0.0 0.03 0.03 0.03 64 997.1
20260504223704 74 216 0.0 9.0 0.03 0.03 0.03 50 997.7
20260504223204 76 16 0.0 0.0 0.00 0.00 0.00 34 997.8
20260504222704 77 16 0.0 0.0 0.00 0.00 0.00 32 997.1
20260504222204 77 16 0.0 0.0 0.00 0.00 0.00 32 996.9
20260504221705 78 16 0.0 0.0 0.00 0.00 0.00 32 996.9
20260504221204 78 16 0.0 0.0 0.00 0.00 0.00 31 996.8
20260504220703 78 16 0.0 0.0 0.00 0.00 0.00 34 996.9
20260504220203 78 16 0.0 0.0 0.00 0.00 0.00 32 996.9
20260504215203 79 16 0.0 0.0 0.00 0.00 0.00 30 997.1
20260504214205 80 16 0.0 10.0 0.00 0.00 0.00 28 997.1
20260504213704 80 0 0.0 0.0 0.00 0.00 0.00 29 997.1
20260504213204 80 0 0.0 0.0 0.00 0.00 0.00 28 997.0
20260504212703 80 0 0.0 0.0 0.00 0.00 0.00 30 997.2
20260504211704 80 0 0.0 0.0 0.00 0.00 0.00 29 997.3
20260504211203 80 0 0.0 0.0 0.00 0.00 0.00 26 997.4
20260504210715 80 0 0.0 0.0 0.00 0.00 0.00 26 997.4
20260504210204 81 0 0.0 0.0 0.00 0.00 0.00 25 997.5
20260504205704 81 0 0.0 0.0 0.00 0.00 0.00 26 997.4
20260504205204 81 0 0.0 0.0 0.00 0.00 0.00 26 997.5
20260504204203 82 0 0.0 0.0 0.00 0.00 0.00 24 997.6
20260504203204 82 0 0.0 0.0 0.00 0.00 0.00 23 997.7
20260504202704 82 282 1.0 12.0 0.00 0.00 0.00 23 997.7
20260504202204 82 0 0.0 0.0 0.00 0.00 0.00 23 997.8
20260504201204 81 0 0.0 0.0 0.00 0.00 0.00 27 997.9
20260504200705 81 0 0.0 3.0 0.00 0.00 0.00 24 997.9
20260504200205 82 0 0.0 5.0 0.00 0.00 0.00 25 998.1
20260504195704 82 0 0.0 1.0 0.00 0.00 0.00 24 998.1
20260504194704 83 0 0.0 1.0 0.00 0.00 0.00 23 998.5
20260504194203 83 0 0.0 2.0 0.00 0.00 0.00 25 998.6
20260504193703 83 0 0.0 5.0 0.00 0.00 0.00 22 998.8
20260504192704 82 0 1.0 5.0 0.00 0.00 0.00 22 998.7
20260504192204 81 0 0.0 0.0 0.00 0.00 0.00 26 998.6
20260504191704 81 0 0.0 0.0 0.00 0.00 0.00 25 998.8
20260504190703 82 72 0.0 1.0 0.00 0.00 0.00 29 998.8
20260504190203 82 72 0.0 0.0 0.00 0.00 0.00 29 998.9
20260504185704 81 72 0.0 10.0 0.00 0.00 0.00 28 998.9
20260504185204 81 0 0.0 0.0 0.00 0.00 0.00 27 999.0
20260504184705 81 0 0.0 0.0 0.00 0.00 0.00 28 999.0
20260504184204 81 0 0.0 0.0 0.00 0.00 0.00 29 998.9
20260504183704 80 0 0.0 0.0 0.00 0.00 0.00 28 999.0
20260504183204 81 0 1.0 5.0 0.00 0.00 0.00 25 998.9
20260504182704 81 97 0.0 0.0 0.00 0.00 0.00 30 999.0
20260504182204 81 97 0.0 0.0 0.00 0.00 0.00 28 999.0
20260504181704 81 97 0.0 0.0 0.00 0.00 0.00 28 999.0
20260504181204 80 97 0.0 3.0 0.00 0.00 0.00 27 999.0
20260504180704 80 97 0.0 0.0 0.00 0.00 0.00 28 999.0
20260504180203 79 97 0.0 0.0 0.00 0.00 0.00 31 999.1
20260504175204 80 244 0.0 0.0 0.00 0.00 0.00 27 999.2
20260504174704 80 244 0.0 13.0 0.00 0.00 0.00 30 999.3
20260504174204 80 0 0.0 0.0 0.00 0.00 0.00 29 999.5